[[{"header":{"parameterUnit":"m.s-1","parameterCategory":1,"la1":30.2992,"la2":30.254,"lo1":-89.0895,"lo2":-89.0443,"dy":0.0025,"dx":0.0025,"nx":19,"ny":19,"refTime":"2026-04-08T09:00:00:Z","depth":0,"parameterNumber":2,"parameterNumberName":"U-component_of_WINDS"},"data":[0,0,0,-7.5153,-7.5158,-7.5379,-7.5379,-7.5719,-7.5723,0,0,0,0,0,0,0,0,0,0,0,-7.5123,-7.5126,-7.5152,-7.5159,-7.5379,-7.5379,-7.5719,-7.5723,0,0,0,0,0,0,0,0,0,0,0,-7.5121,-7.5125,-7.513,-7.516,-7.5378,-7.5379,-7.5718,-7.5531,0,0,0,0,0,0,0,0,0,0,-7.5308,-7.5314,-7.5124,-7.513,-7.5161,-7.5378,-7.5379,-7.5521,-7.5543,-7.5645,0,-7.5744,0,-7.5739,-7.5749,-7.5751,0,0,0,-7.5133,-7.5296,-7.5323,-7.513,-7.5164,-7.5378,-7.5272,-7.5533,-7.5557,-7.5674,-7.5748,-7.5759,-7.5745,-7.5752,-7.5754,-7.6423,-7.6427,0,0,-7.5121,-7.5182,-7.5307,-7.5341,-7.531,-7.5265,-7.5279,-7.5547,-7.5632,-7.5749,-7.5766,-7.575,-7.5755,-7.5758,-7.6419,-7.6424,0,0,0,-7.5104,-7.5174,-7.5193,-7.5329,-7.5364,-7.5272,-7.5288,-7.562,-7.5621,-7.5769,-7.5754,-7.5757,-7.5762,-7.6414,-7.642,-7.6693,0,0,0,-7.5095,-7.5164,-7.519,-7.5229,-7.536,-7.5495,-7.5357,-7.5603,-7.5631,-7.5753,-7.5757,-7.5766,-7.6409,-7.6417,-7.6675,-7.6813,0,0,0,-7.5096,-7.5163,-7.5207,-7.5232,-7.5328,-7.5489,-7.5504,-7.5607,-7.5624,-7.5751,-7.5767,-7.6406,-7.6416,-7.6659,-7.6786,-7.7007,0,0,0,-7.5116,-7.5447,-7.5212,-7.5576,-7.5327,-7.5655,-7.5502,-7.5743,-7.5885,-7.5759,-7.641,-7.642,-7.6654,-7.677,-7.699,-7.7204,-7.7299,0,0,-7.5568,-7.5504,-7.5713,-7.5509,-7.5894,-7.5616,-7.6041,-7.6115,-7.6073,-7.6309,-7.6324,-7.6681,-7.6784,-7.7003,-7.7803,-7.7879,0,0,0,-7.5877,-7.6028,-7.6117,-7.6254,-7.6316,-7.6382,-7.6383,-7.641,-7.6607,-7.6206,-7.6817,-7.6877,-7.7003,-7.7102,-7.7167,-7.7271,-7.6468,-7.6467,-7.6466,-7.6606,-7.6531,-7.6872,-7.6825,-7.696,-7.6956,-7.7059,-7.7094,-7.6982,-7.7127,-7.7198,-7.7692,-7.7811,-7.7859,-7.7969,-7.7303,-7.7304,-7.7305,-7.7306,-7.7262,-7.7465,-7.7304,-7.7578,-7.7498,-7.7727,-7.7736,-7.7648,-7.7851,-7.7633,-7.774,-7.7511,-7.7944,-7.8036,-7.7326,-7.7322,-7.732,-7.7318,-7.7316,-7.7733,-7.7817,-7.7842,-7.8031,-7.8185,-7.8124,-7.8325,-7.8244,-7.817,-7.8276,-7.8342,-7.8337,-7.8324,-7.8313,-7.8314,-7.8316,-7.8318,-7.8319,-7.832,-7.8212,-7.8231,-7.841,-7.8503,-7.8579,-7.8669,-7.8667,-7.8741,-7.8801,-7.8727,-7.8727,-7.8601,-7.7999,-7.785,-7.8346,-7.8342,-7.8338,-7.8336,-7.8334,-7.8909,-7.8738,-7.9015,-7.9091,-7.9192,-7.935,-7.9243,-7.9399,-7.9447,-7.955,-7.9399,-7.8966,-7.8896,-7.8845,-7.8721,-7.9413,-7.9413,-7.9413,-7.9413,-7.9308,-7.9263,-7.9526,-7.9654,-7.9769,-7.9699,-8.0015,-8.0017,-7.9992,-8.0017,-7.9905,-7.9733,-7.9684,-7.9643,-7.9574,-7.9458,-8.0321,-8.0322,-8.0323,-7.9733,-7.9694,-7.9979,-7.995,-8.0022,-8.0086,-8.0381,-8.0534,-8.047,-8.0358,-8.0036,-7.9998,-7.972,-7.9633,-7.9518,-7.9412,-7.9197,0,0]},{"header":{"parameterUnit":"m.s-1","parameterCategory":1,"la1":30.2992,"la2":30.254,"lo1":-89.0895,"lo2":-89.0443,"dy":0.0025,"dx":0.0025,"nx":19,"ny":19,"refTime":"2026-04-08T09:00:00:Z","depth":0,"parameterNumber":3,"parameterNumberName":"V-component_of_WINDS"},"data":[0,0,0,-1.6515,-1.6516,-1.6554,-1.6554,-1.6595,-1.6595,0,0,0,0,0,0,0,0,0,0,0,-1.65,-1.65,-1.6515,-1.6516,-1.6554,-1.6554,-1.6595,-1.6595,0,0,0,0,0,0,0,0,0,0,0,-1.6499,-1.65,-1.65,-1.6516,-1.6554,-1.6555,-1.6595,-1.6568,0,0,0,0,0,0,0,0,0,0,-1.6532,-1.6515,-1.65,-1.65,-1.6516,-1.6554,-1.6555,-1.6567,-1.657,-1.6574,0,-1.6577,0,-1.6587,-1.6597,-1.6597,0,0,0,-1.6518,-1.6512,-1.6526,-1.65,-1.6516,-1.6554,-1.6538,-1.6569,-1.6572,-1.6577,-1.6578,-1.658,-1.6587,-1.6597,-1.6598,-1.6612,-1.6612,0,0,-1.6516,-1.6504,-1.6524,-1.6528,-1.6523,-1.6536,-1.6539,-1.6571,-1.657,-1.6578,-1.6581,-1.6588,-1.6598,-1.6598,-1.6612,-1.6612,0,0,0,-1.6508,-1.6503,-1.6516,-1.6526,-1.6534,-1.6537,-1.654,-1.6569,-1.6574,-1.6581,-1.6589,-1.6598,-1.6598,-1.6612,-1.6612,-1.6597,0,0,0,-1.6507,-1.6498,-1.6515,-1.6508,-1.6533,-1.6552,-1.6537,-1.6572,-1.6576,-1.6588,-1.6598,-1.6599,-1.6612,-1.6612,-1.6597,-1.6591,0,0,0,-1.6498,-1.6497,-1.6501,-1.6507,-1.6524,-1.6552,-1.656,-1.6573,-1.658,-1.6597,-1.6599,-1.6612,-1.6612,-1.6598,-1.6592,-1.6591,0,0,0,-1.6485,-1.6488,-1.6501,-1.6507,-1.6523,-1.6543,-1.6559,-1.6575,-1.6588,-1.6598,-1.6612,-1.6612,-1.6598,-1.6593,-1.6591,-1.6586,-1.6584,0,0,-1.6482,-1.6488,-1.6492,-1.6504,-1.6519,-1.6538,-1.655,-1.6573,-1.6585,-1.6602,-1.6602,-1.6597,-1.6593,-1.6591,-1.6573,-1.6571,0,0,0,-1.6487,-1.649,-1.6496,-1.6508,-1.6525,-1.6539,-1.6561,-1.6569,-1.6584,-1.6592,-1.6597,-1.6594,-1.6594,-1.6592,-1.659,-1.6589,-1.6611,-1.6611,-1.6611,-1.6466,-1.6481,-1.6488,-1.6507,-1.6518,-1.654,-1.6549,-1.6563,-1.6576,-1.6577,-1.6582,-1.657,-1.6567,-1.6566,-1.6565,-1.6581,-1.6581,-1.6581,-1.6581,-1.6462,-1.6468,-1.6483,-1.6495,-1.651,-1.652,-1.654,-1.6548,-1.6559,-1.6568,-1.6568,-1.6576,-1.6563,-1.6563,-1.658,-1.658,-1.658,-1.658,-1.658,-1.645,-1.6455,-1.6464,-1.6481,-1.6491,-1.651,-1.6518,-1.6532,-1.6545,-1.6545,-1.655,-1.655,-1.6551,-1.6546,-1.6546,-1.6546,-1.6546,-1.6546,-1.6546,-1.6433,-1.6444,-1.645,-1.6467,-1.6475,-1.6486,-1.6506,-1.6513,-1.6525,-1.6534,-1.6534,-1.6545,-1.6559,-1.6562,-1.6546,-1.6546,-1.6546,-1.6546,-1.6546,-1.6424,-1.6427,-1.6437,-1.6444,-1.6463,-1.6471,-1.6487,-1.6501,-1.6509,-1.6512,-1.6522,-1.6531,-1.6537,-1.6539,-1.6541,-1.652,-1.652,-1.652,-1.652,-1.6413,-1.6417,-1.6428,-1.6438,-1.645,-1.6465,-1.6472,-1.6486,-1.6501,-1.6506,-1.6511,-1.6515,-1.6517,-1.6522,-1.6524,-1.6526,-1.6502,-1.6502,-1.6502,-1.6406,-1.6412,-1.6416,-1.6431,-1.6446,-1.6458,-1.6464,-1.6474,-1.6492,-1.6502,-1.651,-1.6511,-1.6518,-1.652,-1.653,-1.6533,-1.6537,0,0]}]]